Location: Chevoux
(46.3801°N, 4.9476°E)
Time: 07:57:45
(UTC+00:00)

X-37B - Pass Details

Date: 23 April 2021
Orbit: 386 x 389 km, 45.0° (Epoch: 08 May)

Event Time Altitude Azimuth Distance (km) Brightness Sun altitude
Exits shadow 01:41:30 13° 92° (E) 1,252 3.5 -24.9°
Drops below altitude 10° 01:41:55 10° 90° (E) 1,415 3.8 -24.9°
Sets 01:44:01 0° 84° (E) 2,271 5.0 -24.7°
